Location: Three Guys Observatory
(38.6418°N, 87.1521°W)
Time: 18:20:45
(UTC-05:00)

ISS - Visible Passes

Search period start: 11 February 2016 00:00
Search period end: 21 February 2016 00:00
Orbit: 398 x 408 km, 51.6° (Epoch: 11 February)

Date Brightness Start Highest point End Pass type
(mag) Time Alt. Az. Time Alt. Az. Time Alt. Az.
12 Feb -0.5 20:09:05 10° N 20:09:19 11° N 20:09:19 11° N visible
13 Feb -0.8 19:17:24 10° N 19:17:29 10° NNE 19:17:32 10° NNE visible
14 Feb -1.2 19:59:16 10° NNW 20:00:47 17° N 20:00:47 17° N visible
15 Feb -1.1 19:06:46 10° NNW 19:08:32 14° NNE 19:10:14 10° NE visible
15 Feb -0.4 20:42:14 10° NW 20:42:52 15° NW 20:42:52 15° NW visible
16 Feb -2.5 19:49:25 10° NW 19:52:21 34° NNE 19:52:21 34° NNE visible
17 Feb -1.8 18:56:39 10° NNW 18:59:14 21° NNE 19:01:49 10° E visible
17 Feb -1.3 20:32:41 10° WNW 20:34:32 29° W 20:34:32 29° W visible
18 Feb -3.5 19:39:31 10° NW 19:42:46 80° NE 19:44:12 30° ESE visible
19 Feb -0.9 20:23:25 10° W 20:25:47 19° SW 20:26:39 17° SSW visible
20 Feb -2.0 19:29:41 10° WNW 19:32:44 38° SW 19:35:46 10° SSE visible
